Temperature
22 24 25 26 26 26 24 23 22 23 23 24 23 23 24 24 24 23 23 23 23 23 23 23 23 22 22 22 21 21 20 20 20 20 19 19 19 19 18 18 18 18 17 17
22 24 25 25 25 26 25 25 24 24 23 23 24 24 24 24 23 23 23 23 23 23 23 23 23 22 22 22 21 21 20 20 20 20 19 19 19 19 18 18 18 17 17 17
20 22 23 23 24 25 25 24 24 23 23 22 22 22 22 23 23 23 23 23 22 22 22 22 23 22 22 22 21 21 20 20 20 20 19 19 19 18 18 18 17 17 17 17
18 21 22 22 23 25 25 24 23 23 22 22 22 23 23 23 23 22 22 22 22 22 22 22 22 22 22 21 21 20 20 20 20 19 19 19 19 18 18 17 17 17 17 17
17 19 20 22 23 24 23 23 23 22 22 22 23 22 22 23 23 23 23 22 22 22 22 22 22 22 21 21 20 20 20 20 20 19 19 19 18 18 18 17 17 17 17 16
17 19 20 21 23 24 23 21 22 21 21 21 21 19 20 23 23 23 22 22 22 22 22 21 21 21 21 21 20 20 20 20 20 19 19 19 18 18 17 17 17 17 16 16
17 18 19 20 22 23 21 20 22 22 22 21 21 21 22 23 23 23 22 22 22 22 21 21 21 21 21 20 20 20 20 19 19 19 18 18 18 18 17 17 17 16 16 16
16 17 18 20 21 20 19 21 22 22 22 22 22 22 22 22 22 22 22 22 21 21 21 21 20 20 20 20 20 20 19 19 19 18 18 18 17 17 17 17 16 16 16 16
16 17 19 21 21 22 22 22 22 22 22 22 21 21 21 21 21 21 21 21 21 21 20 20 20 20 20 20 19 19 19 19 18 18 18 17 17 17 17 16 16 16 16 15
16 17 19 21 21 22 22 22 22 22 21 22 21 21 21 21 21 21 21 20 20 20 20 19 19 19 19 19 19 19 18 18 18 18 17 17 17 17 17 16 16 16 15 15
16 17 18 20 21 21 21 21 21 21 21 21 21 20 20 20 20 20 20 20 19 19 19 19 19 19 19 19 18 18 18 18 17 17 17 17 17 16 16 16 16 16 16 15
15 16 16 18 20 20 20 20 20 20 20 20 21 20 20 20 20 19 19 19 19 19 19 18 18 18 18 18 18 18 18 17 17 17 17 16 16 16 16 15 15 15 15 15
18 18 18 19 19 20 20 20 20 20 20 20 20 20 20 19 19 18 18 18 18 18 18 18 18 18 18 17 17 17 17 17 17 16 16 16 16 16 15 15 15 15 14 14
18 18 18 18 19 19 19 19 19 19 19 19 19 19 19 19 18 18 18 18 18 18 17 17 17 17 17 17 17 17 16 16 16 16 16 16 16 15 15 15 15 14 14 14
18 18 18 18 18 18 18 18 18 18 18 18 18 18 18 18 18 17 17 17 17 17 17 17 17 17 17 17 16 16 16 16 16 15 15 15 15 15 15 15 14 14 14 14
17 17 18 17 17 17 17 17 17 17 17 17 17 17 18 18 17 17 17 16 16 16 16 16 16 17 16 16 16 16 16 15 15 15 15 15 15 14 14 14 14 14 13 13
17 17 17 17 17 17 17 17 17 17 17 17 17 17 17 17 16 16 16 16 16 16 16 16 16 16 16 16 16 16 15 15 15 15 15 14 14 14 14 14 14 13 13 13
16 17 17 17 17 17 17 17 17 17 17 17 16 16 16 16 16 16 16 15 15 15 15 16 16 16 16 15 15 15 15 14 14 14 14 14 14 14 13 13 13 13 13 13
16 17 17 17 17 16 16 16 16 16 16 16 16 16 16 16 15 15 15 15 15 15 15 15 15 15 15 15 15 15 15 14 14 14 14 14 13 13 13 13 13 13 13 12
16 16 16 16 16 16 16 16 16 15 15 15 15 15 15 15 15 15 15 15 15 15 15 15 15 15 15 15 15 14 14 14 14 14 13 13 13 13 13 13 13 13 12 12
15 15 15 15 15 15 15 15 15 15 15 15 15 15 14 14 14 15 14 14 14 14 14 14 14 14 14 14 14 14 14 14 14 13 13 13 13 12 12 12 12 12 12 12
15 14 14 15 15 15 15 14 14 14 14 14 14 14 14 14 14 14 14 14 14 14 14 14 14 14 14 14 14 14 14 13 13 13 13 12 12 12 12 12 12 12 12 11
14 14 14 14 14 14 14 14 14 14 14 14 14 14 14 14 14 14 14 14 14 14 14 14 14 14 14 13 13 13 13 13 13 12 12 12 12 12 12 12 12 12 11 11
13 13 13 13 13 13 13 13 14 13 13 13 13 13 13 13 13 13 13 13 13 13 13 13 13 13 13 13 13 13 13 12 12 12 12 12 12 12 12 11 11 11 11 11
13 13 13 12 12 13 13 13 13 13 13 13 13 13 13 13 13 13 13 13 13 13 13 13 13 13 13 13 13 13 12 12 12 12 12 12 12 12 12 11 11 11 11 11
12 12 12 12 12 12 12 12 12 12 12 12 12 12 12 12 12 12 12 13 13 13 13 13 13 13 13 12 12 12 12 12 12 12 12 12 12 12 11 11 11 11 11 11
11 11 11 12 12 12 12 12 12 12 12 12 12 12 12 12 12 12 12 12 12 12 12 12 12 12 12 12 12 12 12 12 12 12 12 12 11 11 11 11 11 11 11 11
Wind_Speed
4 5 2 2 4 2 2 7 7 7 7 7 9 11 10 9 9 8 7 7 8 8 8 8 9 9 9 10 9 10 10 9 9 7 6 5 5 4 3 3 4 3 4 3
2 2 2 2 3 3 2 3 4 5 4 5 6 7 7 8 9 9 8 8 7 8 8 8 10 10 10 10 10 10 10 10 9 8 7 6 6 5 4 3 3 4 4 4
2 4 4 4 5 3 3 3 6 6 7 3 6 7 9 10 10 9 9 8 8 8 8 8 9 10 11 11 9 9 10 10 9 9 8 7 7 6 5 4 4 4 3 3
1 3 4 8 5 3 3 1 3 4 4 7 9 8 7 8 9 8 8 7 7 7 7 7 7 7 8 8 9 9 9 9 9 9 8 7 7 6 5 4 4 4 4 4
3 2 5 7 4 1 3 2 1 4 4 6 7 6 2 3 6 8 8 8 6 6 6 5 6 7 8 7 8 8 8 9 9 9 8 8 8 7 6 5 4 4 4 4
4 4 6 7 7 3 5 1 3 3 4 5 6 4 4 4 5 5 5 5 5 5 5 5 5 6 8 9 8 8 9 9 8 9 9 9 9 7 5 5 5 5 4 4
4 4 6 7 7 4 4 5 3 2 3 4 4 6 6 6 5 5 5 5 6 6 6 6 6 7 7 7 8 7 6 7 7 8 8 8 7 6 6 6 5 4 4 3
5 4 7 5 3 3 6 4 2 2 3 3 2 2 3 5 5 6 5 4 5 5 5 4 5 6 6 6 6 5 6 6 6 7 7 7 7 6 6 7 6 5 4 3
7 7 6 2 3 3 3 2 2 2 2 5 4 2 3 4 4 5 5 5 4 5 5 4 5 6 6 5 4 5 6 7 7 7 6 6 7 8 7 7 6 5 5 5
2 3 3 1 2 2 1 2 1 3 3 4 4 3 3 3 3 4 5 4 4 5 5 4 4 5 5 5 5 6 7 6 6 7 6 5 5 6 6 7 7 6 6 5
1 3 2 2 0 1 2 3 3 2 1 2 4 4 3 3 4 5 5 5 4 5 5 5 4 4 4 5 6 6 7 6 6 6 7 5 4 3 4 4 6 8 7 7
5 5 3 4 3 1 1 0 1 2 1 1 3 3 2 3 3 4 5 4 4 4 4 4 4 4 4 5 6 6 5 6 5 5 5 5 5 3 4 2 4 7 9 8
6 5 4 4 3 1 2 2 2 2 3 3 3 4 4 3 3 3 3 4 5 5 5 4 4 4 4 4 5 6 6 6 6 6 6 6 6 6 4 2 4 4 6 9
4 1 2 3 3 2 2 2 1 1 3 3 3 3 3 3 3 4 4 4 4 4 4 4 4 4 4 4 5 5 6 7 7 6 6 6 6 6 6 6 5 2 2 6
4 3 5 4 3 3 2 1 1 2 3 2 2 3 5 5 4 4 4 4 3 3 4 4 4 4 4 5 5 6 6 5 6 6 6 6 6 6 6 6 6 5 4 3
4 3 3 3 4 4 3 2 3 4 4 3 3 4 5 5 4 4 4 4 5 5 5 4 5 5 4 5 6 5 5 8 7 6 5 5 6 6 6 6 6 6 6 6
3 4 3 4 4 3 3 4 5 5 5 5 5 5 4 4 4 3 4 4 5 5 5 5 6 5 5 5 6 5 5 6 8 6 6 6 5 6 6 6 6 6 6 7
5 5 5 4 5 4 4 3 3 4 5 6 5 5 6 6 7 6 5 5 4 4 5 5 6 5 5 6 6 5 6 5 5 6 5 5 5 5 6 6 7 7 5 6
3 3 3 3 3 4 4 4 4 4 4 4 5 7 7 7 7 7 6 6 6 6 6 5 7 6 6 7 7 5 6 6 5 5 5 6 6 5 5 6 6 6 7 7
3 2 2 2 3 2 3 3 3 3 3 3 4 5 6 6 6 6 6 6 6 6 5 5 5 5 6 7 7 5 6 6 6 5 6 6 6 6 6 6 6 7 7 7
2 2 1 1 2 2 2 2 1 2 2 3 4 5 5 5 5 5 5 4 4 4 4 5 4 4 5 5 6 5 5 5 6 6 6 6 6 6 6 6 6 7 7 7
2 1 1 1 1 2 2 1 1 1 1 2 3 4 4 4 4 3 3 4 3 4 4 3 3 5 6 6 5 5 5 5 5 5 6 6 6 6 6 6 6 6 6 7
2 2 1 1 1 2 2 1 1 1 1 2 3 4 4 4 4 4 3 3 3 5 4 3 4 6 7 5 5 5 5 5 5 5 5 6 6 6 6 6 6 6 7 7
3 2 2 2 2 1 2 2 1 1 1 2 2 3 4 3 2 2 2 4 5 5 3 3 5 6 5 4 4 4 4 4 4 5 5 5 6 6 6 6 5 6 6 7
2 2 2 2 2 2 2 1 1 0 0 0 1 1 2 3 3 2 2 4 5 5 3 4 6 6 5 4 4 4 4 5 5 5 5 5 6 6 6 5 6 6 6 6
2 2 2 1 1 2 1 0 1 1 1 0 0 1 1 2 3 2 2 3 4 5 3 3 3 4 4 4 4 4 5 5 5 5 5 5 6 6 6 6 7 6 6 5
3 3 2 2 2 1 0 0 1 1 1 1 1 1 1 2 2 2 2 2 2 3 3 2 3 3 4 4 4 4 4 4 4 4 5 5 5 5 6 7 6 5 5 6
Wind_Direction
212 222 193 267 285 264 173 181 178 207 198 208 187 174 171 161 152 149 152 151 155 159 163 167 168 170 171 171 170 169 167 170 177 176 170 165 162 161 153 148 147 139 131 120
344 331 11 322 297 257 227 186 175 174 222 221 171 145 148 152 150 151 159 158 160 161 163 172 173 173 173 173 174 170 171 176 176 170 169 169 167 161 151 142 136 130 132 130
288 320 26 279 236 211 208 204 170 192 225 172 126 144 168 164 159 164 167 163 160 166 173 180 180 176 179 176 169 169 173 177 176 174 174 177 172 160 160 157 146 140 143 139
128 41 225 245 248 181 158 201 183 169 168 152 158 168 163 157 156 159 158 160 167 169 177 189 179 163 162 165 166 171 175 178 178 175 175 170 164 166 170 165 164 168 166 163
125 175 271 295 305 167 149 282 301 144 140 139 133 103 89 174 163 165 163 162 168 169 166 168 164 159 156 163 164 169 180 180 177 173 171 169 172 176 180 173 172 179 177 171
135 161 225 256 293 311 106 296 319 108 140 138 112 122 222 217 176 158 152 146 141 135 126 145 173 166 166 169 171 179 187 186 177 172 171 175 178 180 181 173 177 172 171 176
161 198 251 262 298 36 123 224 272 131 127 129 160 198 205 181 165 146 138 142 135 137 149 166 171 164 163 172 185 189 180 173 174 174 176 175 176 177 169 166 162 160 162 170
159 194 246 283 38 139 204 224 203 150 145 136 121 115 144 144 147 140 133 132 137 142 158 167 159 157 164 181 187 170 163 171 180 178 179 177 171 171 169 165 162 162 158 156
182 207 231 238 168 195 166 148 161 148 149 126 113 107 133 131 140 146 146 150 151 150 156 165 163 160 172 186 166 166 170 181 186 181 179 174 173 173 171 170 171 176 172 173
156 241 233 214 100 65 109 131 150 139 136 124 126 139 135 137 148 158 161 161 156 147 153 170 173 172 178 176 164 167 182 187 182 175 171 165 168 174 175 179 179 179 178 176
219 256 326 325 89 112 63 63 75 85 107 157 146 154 163 170 176 181 172 169 167 166 169 180 180 182 178 172 164 171 178 178 173 172 167 160 155 164 183 193 190 182 183 175
226 234 201 242 244 171 107 324 148 107 352 279 182 179 182 190 196 183 177 171 171 172 170 179 180 186 184 176 172 173 178 174 169 166 164 160 152 125 65 125 162 179 177 172
223 242 224 239 255 248 225 223 205 192 211 243 235 192 188 200 200 179 170 173 180 182 179 179 181 189 191 178 176 181 186 179 171 167 165 166 165 161 154 83 82 127 162 168
248 236 279 268 261 266 242 240 227 228 239 226 219 211 190 183 183 180 184 190 192 185 180 180 184 201 202 184 181 189 187 181 174 174 172 171 174 174 171 164 159 158 156 164
259 220 223 249 263 269 261 233 239 277 274 252 220 193 179 175 187 197 198 189 179 186 194 187 191 212 205 188 184 187 182 179 175 172 171 173 174 173 174 171 169 161 147 150
260 245 226 234 248 253 244 217 218 242 235 230 221 213 197 188 191 193 192 184 182 201 211 201 206 215 200 189 186 186 181 177 174 170 169 173 173 173 174 170 168 168 171 169
257 260 252 247 244 249 245 234 225 228 224 229 225 209 190 179 180 189 200 198 201 209 214 209 216 213 199 190 185 185 179 178 175 172 175 177 178 180 179 172 172 177 182 173
231 231 224 223 233 243 255 262 240 230 229 227 215 199 192 189 195 200 199 201 211 222 224 218 215 204 200 193 186 178 173 174 175 174 173 173 175 178 176 173 174 174 168 164
237 243 249 252 259 258 260 263 261 251 243 225 211 211 209 205 197 196 193 199 206 216 232 221 206 197 196 194 183 171 170 172 172 171 171 170 173 176 176 175 176 174 167 163
266 267 265 277 275 259 269 283 278 261 245 214 203 200 201 200 194 197 199 207 216 219 214 200 191 189 187 183 177 174 173 174 174 173 171 169 171 176 180 180 180 175 172 173
291 278 279 286 298 297 283 274 265 255 234 185 178 185 195 198 191 187 183 208 239 214 187 182 185 184 177 171 168 169 169 170 170 173 173 173 176 179 178 177 176 176 174 174
321 329 329 326 319 298 291 278 253 239 206 184 174 178 183 194 186 177 186 199 206 188 176 180 184 174 170 166 168 168 169 170 172 173 177 178 179 180 179 176 174 172 170 171
334 329 319 310 285 275 295 301 271 224 193 206 200 196 188 192 189 183 201 206 176 167 169 178 180 174 170 167 165 169 172 175 177 177 177 176 178 178 179 178 175 170 168 171
313 325 320 313 320 342 329 305 293 272 223 213 203 191 176 167 176 202 184 178 170 162 165 170 166 163 166 167 165 168 173 176 175 172 170 169 168 170 172 174 175 175 174 174
315 335 340 341 338 308 277 278 329 334 188 178 185 180 176 174 176 187 178 173 170 165 168 167 162 163 169 171 168 172 179 180 172 166 166 166 168 171 174 176 177 177 178 178
310 312 312 304 280 286 286 241 193 201 166 164 220 191 158 147 151 168 178 178 172 171 170 164 164 167 172 172 177 178 176 173 170 173 172 172 172 174 176 179 179 180 178 177
322 329 341 344 329 322 309 195 210 202 162 163 187 186 155 149 152 153 157 163 167 175 176 171 168 166 167 169 171 170 167 168 170 173 175 174 172 174 177 176 177 176 174 171
Height
1492 1487 1485 1487 1487 1487 1494 1501 1509 1506 1503 1496 1492 1492 1494 1497 1499 1502 1503 1505 1507 1509 1512 1514 1516 1518 1520 1523 1525 1526 1528 1530 1531 1532 1533 1534 1535 1535 1535 1536 1536 1536 1536 1536
1493 1485 1484 1487 1484 1485 1487 1489 1494 1495 1496 1488 1488 1491 1494 1496 1498 1500 1502 1503 1505 1507 1510 1512 1513 1515 1518 1520 1522 1524 1526 1527 1529 1530 1531 1532 1533 1533 1534 1534 1535 1535 1535 1535
1505 1492 1489 1498 1486 1484 1486 1484 1487 1495 1492 1486 1489 1491 1492 1494 1496 1497 1499 1501 1503 1505 1507 1509 1511 1513 1515 1517 1519 1521 1523 1525 1526 1528 1529 1530 1531 1532 1532 1533 1533 1534 1534 1534
1508 1503 1512 1495 1477 1477 1480 1481 1481 1482 1483 1483 1484 1486 1489 1491 1493 1495 1497 1499 1501 1503 1505 1508 1509 1510 1513 1515 1517 1519 1520 1522 1523 1525 1526 1528 1529 1529 1530 1531 1531 1532 1532 1532
1513 1513 1505 1487 1477 1477 1482 1485 1480 1481 1482 1482 1483 1486 1490 1491 1492 1493 1494 1496 1499 1501 1502 1505 1506 1508 1510 1512 1514 1516 1517 1519 1520 1522 1523 1525 1526 1527 1528 1529 1529 1530 1530 1530
1509 1511 1512 1493 1476 1473 1477 1490 1481 1479 1480 1481 1482 1492 1491 1489 1490 1492 1494 1495 1497 1498 1500 1502 1504 1506 1508 1509 1511 1512 1513 1515 1517 1519 1520 1522 1523 1524 1525 1526 1527 1527 1528 1528
1506 1508 1499 1482 1475 1473 1493 1493 1480 1479 1480 1480 1482 1484 1484 1485 1487 1489 1491 1493 1495 1496 1497 1499 1501 1502 1504 1506 1507 1508 1510 1511 1513 1515 1517 1519 1521 1522 1523 1524 1525 1525 1526 1527
1504 1508 1502 1477 1475 1481 1483 1478 1479 1478 1478 1479 1479 1480 1481 1482 1484 1486 1488 1491 1492 1494 1495 1497 1499 1499 1500 1502 1504 1505 1507 1508 1510 1512 1514 1516 1517 1519 1520 1521 1522 1523 1524 1524
1491 1492 1480 1476 1476 1476 1477 1478 1478 1478 1478 1477 1478 1479 1480 1481 1483 1485 1486 1488 1490 1491 1493 1495 1496 1497 1498 1499 1501 1502 1504 1506 1508 1510 1511 1513 1514 1515 1517 1518 1519 1520 1521 1522
1483 1480 1476 1475 1475 1476 1476 1477 1477 1477 1477 1477 1477 1478 1479 1480 1481 1483 1484 1486 1487 1488 1489 1491 1492 1494 1495 1497 1498 1499 1501 1502 1504 1506 1508 1509 1511 1512 1514 1515 1516 1517 1518 1519
1481 1477 1476 1474 1475 1475 1476 1475 1476 1476 1477 1477 1477 1477 1478 1478 1479 1480 1481 1482 1484 1485 1486 1487 1489 1491 1492 1494 1495 1496 1497 1498 1500 1502 1504 1505 1507 1509 1510 1512 1513 1515 1516 1517
1481 1476 1476 1474 1474 1474 1474 1474 1474 1474 1475 1476 1476 1476 1476 1476 1477 1477 1477 1479 1480 1482 1483 1485 1486 1487 1489 1490 1492 1492 1493 1495 1496 1498 1499 1501 1502 1504 1507 1509 1510 1512 1513 1515
1472 1472 1472 1472 1471 1471 1471 1472 1472 1472 1473 1473 1474 1474 1474 1474 1475 1475 1476 1476 1477 1479 1480 1482 1483 1484 1485 1486 1488 1489 1489 1490 1492 1494 1495 1497 1498 1500 1502 1505 1507 1509 1510 1512
1470 1470 1469 1469 1469 1468 1469 1469 1470 1469 1469 1469 1470 1470 1471 1471 1472 1472 1473 1474 1475 1477 1477 1478 1479 1480 1481 1483 1484 1485 1486 1487 1488 1490 1492 1493 1496 1497 1499 1501 1503 1504 1507 1508
1467 1467 1467 1466 1466 1465 1466 1466 1466 1466 1466 1466 1466 1466 1467 1467 1468 1469 1470 1471 1472 1473 1473 1474 1475 1476 1478 1479 1480 1481 1482 1483 1485 1487 1488 1490 1492 1494 1496 1497 1499 1500 1503 1505
1464 1463 1463 1463 1463 1462 1463 1462 1462 1462 1462 1462 1462 1462 1463 1464 1465 1466 1467 1467 1468 1468 1469 1470 1470 1471 1473 1474 1475 1477 1478 1480 1482 1483 1485 1487 1488 1490 1492 1493 1495 1497 1499 1501
1461 1460 1459 1459 1459 1458 1458 1458 1457 1458 1458 1458 1458 1458 1459 1460 1461 1462 1463 1464 1464 1464 1465 1466 1466 1467 1469 1470 1472 1473 1474 1476 1478 1480 1481 1483 1485 1486 1488 1489 1491 1493 1496 1498
1458 1457 1456 1455 1455 1454 1453 1453 1453 1453 1452 1452 1453 1453 1454 1454 1455 1457 1458 1460 1460 1460 1461 1462 1463 1463 1465 1466 1468 1469 1471 1472 1474 1475 1477 1479 1481 1483 1485 1486 1488 1490 1493 1495
1453 1453 1452 1452 1451 1451 1449 1449 1448 1447 1447 1447 1447 1447 1448 1449 1450 1452 1454 1455 1455 1455 1456 1457 1458 1459 1460 1462 1464 1465 1467 1469 1470 1472 1474 1476 1478 1480 1481 1483 1485 1487 1489 1491
1450 1449 1449 1448 1447 1446 1445 1444 1443 1442 1441 1441 1441 1442 1444 1445 1446 1448 1449 1450 1450 1451 1453 1453 1454 1455 1457 1459 1460 1462 1463 1465 1466 1468 1470 1472 1474 1476 1478 1480 1482 1484 1486 1488
1446 1445 1445 1444 1443 1442 1442 1441 1439 1438 1437 1438 1437 1438 1440 1442 1442 1443 1444 1445 1446 1449 1450 1450 1451 1452 1453 1455 1457 1458 1460 1461 1463 1465 1466 1468 1471 1473 1475 1477 1479 1481 1483 1485
1442 1441 1440 1440 1439 1439 1438 1438 1436 1435 1434 1434 1434 1435 1437 1438 1438 1439 1441 1442 1443 1445 1446 1447 1447 1449 1450 1452 1454 1456 1457 1458 1460 1462 1463 1466 1468 1470 1472 1474 1476 1478 1480 1482
1440 1438 1437 1437 1436 1435 1435 1435 1433 1432 1431 1431 1432 1433 1434 1435 1436 1437 1438 1440 1441 1442 1443 1444 1445 1446 1448 1450 1451 1453 1454 1455 1457 1459 1461 1463 1465 1467 1469 1472 1473 1476 1477 1479
1438 1436 1435 1435 1434 1433 1432 1432 1431 1430 1430 1430 1430 1431 1432 1433 1434 1435 1436 1437 1439 1440 1441 1442 1444 1445 1446 1447 1449 1450 1452 1453 1455 1457 1459 1461 1463 1465 1468 1470 1471 1473 1475 1477
1436 1435 1434 1433 1433 1432 1431 1430 1430 1429 1429 1429 1429 1430 1431 1432 1432 1433 1434 1435 1437 1438 1439 1441 1442 1443 1445 1446 1447 1448 1450 1451 1453 1455 1457 1459 1461 1464 1466 1468 1469 1471 1473 1475
1436 1434 1433 1432 1431 1431 1430 1430 1429 1428 1428 1428 1428 1429 1430 1430 1431 1432 1433 1434 1435 1436 1437 1439 1441 1442 1442 1443 1445 1446 1447 1450 1451 1453 1455 1457 1459 1461 1463 1465 1467 1469 1471 1472
1435 1434 1432 1431 1430 1429 1429 1429 1429 1427 1427 1428 1428 1428 1428 1429 1430 1431 1432 1432 1433 1434 1435 1437 1438 1439 1440 1441 1442 1444 1445 1447 1449 1451 1453 1455 1457 1459 1461 1463 1465 1467 1468 1470